Time,TemperatureF,DewpointF,PressureIn,WindDirection,WindDirectionDegrees,WindSpeedMPH,WindSpeedGustMPH,Humidity,HourlyPrecipIn,Conditions,Clouds,dailyrainin,SoftwareType,DateUTC
2013-08-30 00:00:00,61.6,56.7,30.00,ESE,112,0.0,4.0,84,0.00,,,0.00,LWC V2.00 B2112,2013-08-30 07:00:00,
2013-08-30 00:10:00,61.2,56.3,30.00,East,90,0.0,4.0,84,0.00,,,0.00,LWC V2.00 B2112,2013-08-30 07:10:00,
2013-08-30 00:20:00,61.2,56.3,30.00,East,90,0.0,4.0,84,0.00,,,0.00,LWC V2.00 B2112,2013-08-30 07:20:00,
2013-08-30 00:30:00,61.2,56.3,30.00,East,90,0.0,4.0,84,0.00,,,0.00,LWC V2.00 B2112,2013-08-30 07:30:00,
2013-08-30 00:40:00,61.0,56.1,30.00,East,90,1.0,4.0,84,0.00,,,0.00,LWC V2.00 B2112,2013-08-30 07:40:00,
2013-08-30 00:50:00,61.0,56.1,30.00,East,90,1.0,4.0,84,0.00,,,0.00,LWC V2.00 B2112,2013-08-30 07:50:00,
2013-08-30 01:00:00,61.0,56.1,30.00,East,90,1.0,4.0,84,0.00,,,0.00,LWC V2.00 B2112,2013-08-30 08:00:00,
2013-08-30 01:10:00,60.8,55.9,30.00,SW,225,0.0,4.0,84,0.00,,,0.00,LWC V2.00 B2112,2013-08-30 08:10:00,
2013-08-30 01:20:00,60.8,55.9,30.00,SW,225,0.0,4.0,84,0.00,,,0.00,LWC V2.00 B2112,2013-08-30 08:20:00,
2013-08-30 01:30:00,60.8,55.9,30.00,SW,225,0.0,4.0,84,0.00,,,0.00,LWC V2.00 B2112,2013-08-30 08:30:00,
2013-08-30 01:40:00,60.6,55.7,30.00,SSW,202,1.0,5.0,84,0.00,,,0.00,LWC V2.00 B2112,2013-08-30 08:40:00,
2013-08-30 01:50:00,60.6,55.7,30.00,SSW,202,1.0,5.0,84,0.00,,,0.00,LWC V2.00 B2112,2013-08-30 08:50:00,
2013-08-30 02:00:00,60.6,55.7,30.00,SSW,202,1.0,5.0,84,0.00,,,0.00,LWC V2.00 B2112,2013-08-30 09:00:00,
2013-08-30 02:10:00,60.3,55.4,29.99,East,90,1.0,4.0,84,0.00,,,0.00,LWC V2.00 B2112,2013-08-30 09:10:00,
2013-08-30 02:20:00,60.3,55.4,29.99,East,90,1.0,4.0,84,0.00,,,0.00,LWC V2.00 B2112,2013-08-30 09:20:00,
2013-08-30 02:30:00,60.3,55.4,29.99,East,90,1.0,4.0,84,0.00,,,0.00,LWC V2.00 B2112,2013-08-30 09:30:00,
2013-08-30 02:40:00,60.3,55.4,29.99,ESE,112,0.0,3.0,84,0.00,,,0.00,LWC V2.00 B2112,2013-08-30 09:40:00,
2013-08-30 02:50:00,60.3,55.4,29.99,ESE,112,0.0,3.0,84,0.00,,,0.00,LWC V2.00 B2112,2013-08-30 09:50:00,
2013-08-30 03:00:00,60.3,55.4,29.99,ESE,112,0.0,3.0,84,0.00,,,0.00,LWC V2.00 B2112,2013-08-30 10:00:00,
2013-08-30 03:10:00,59.9,55.1,29.99,East,90,0.0,2.0,84,0.00,,,0.00,LWC V2.00 B2112,2013-08-30 10:10:00,
2013-08-30 03:20:00,59.9,55.1,29.99,East,90,0.0,2.0,84,0.00,,,0.00,LWC V2.00 B2112,2013-08-30 10:20:00,
2013-08-30 03:30:00,59.9,55.1,29.99,East,90,0.0,2.0,84,0.00,,,0.00,LWC V2.00 B2112,2013-08-30 10:30:00,
2013-08-30 03:40:00,59.9,55.1,29.99,ENE,68,0.0,3.0,84,0.00,,,0.00,LWC V2.00 B2112,2013-08-30 10:40:00,
2013-08-30 03:50:00,59.9,55.1,29.99,ENE,68,0.0,3.0,84,0.00,,,0.00,LWC V2.00 B2112,2013-08-30 10:50:00,
2013-08-30 04:00:00,59.9,55.1,29.99,ENE,68,0.0,3.0,84,0.00,,,0.00,LWC V2.00 B2112,2013-08-30 11:00:00,
2013-08-30 04:10:00,59.5,54.7,29.99,East,90,0.0,2.0,84,0.00,,,0.00,LWC V2.00 B2112,2013-08-30 11:10:00,
2013-08-30 04:20:00,59.5,54.7,29.99,East,90,0.0,2.0,84,0.00,,,0.00,LWC V2.00 B2112,2013-08-30 11:20:00,
2013-08-30 04:30:00,59.5,54.7,29.99,East,90,0.0,2.0,84,0.00,,,0.00,LWC V2.00 B2112,2013-08-30 11:30:00,
2013-08-30 04:40:00,59.3,54.5,29.98,East,90,0.0,3.0,84,0.00,,,0.00,LWC V2.00 B2112,2013-08-30 11:40:00,
2013-08-30 04:50:00,59.3,54.5,29.98,East,90,0.0,3.0,84,0.00,,,0.00,LWC V2.00 B2112,2013-08-30 11:50:00,
2013-08-30 05:00:00,59.3,54.5,29.98,East,90,0.0,3.0,84,0.00,,,0.00,LWC V2.00 B2112,2013-08-30 12:00:00,
2013-08-30 05:10:00,59.1,54.3,29.98,NNW,338,0.0,1.0,84,0.00,,,0.00,LWC V2.00 B2112,2013-08-30 12:10:00,
2013-08-30 05:20:00,59.1,54.3,29.98,NNW,338,0.0,1.0,84,0.00,,,0.00,LWC V2.00 B2112,2013-08-30 12:20:00,
2013-08-30 05:30:00,59.1,54.3,29.98,NNW,338,0.0,1.0,84,0.00,,,0.00,LWC V2.00 B2112,2013-08-30 12:30:00,
2013-08-30 05:40:00,58.3,53.5,29.98,WSW,248,0.0,1.0,84,0.00,,,0.00,LWC V2.00 B2112,2013-08-30 12:40:00,
2013-08-30 05:50:00,58.3,53.5,29.98,WSW,248,0.0,1.0,84,0.00,,,0.00,LWC V2.00 B2112,2013-08-30 12:50:00,
2013-08-30 06:00:00,58.3,53.5,29.98,WSW,248,0.0,1.0,84,0.00,,,0.00,LWC V2.00 B2112,2013-08-30 13:00:00,
2013-08-30 06:10:00,59.1,54.3,29.99,East,90,0.0,4.0,84,0.00,,,0.00,LWC V2.00 B2112,2013-08-30 13:10:00,
2013-08-30 06:20:00,59.1,54.3,29.99,East,90,0.0,4.0,84,0.00,,,0.00,LWC V2.00 B2112,2013-08-30 13:20:00,
2013-08-30 06:30:00,59.1,54.3,29.99,East,90,0.0,4.0,84,0.00,,,0.00,LWC V2.00 B2112,2013-08-30 13:30:00,
2013-08-30 06:40:00,58.6,53.8,29.99,NNW,338,0.0,4.0,84,0.00,,,0.00,LWC V2.00 B2112,2013-08-30 13:40:00,
2013-08-30 06:50:00,58.6,53.8,29.99,NNW,338,0.0,4.0,84,0.00,,,0.00,LWC V2.00 B2112,2013-08-30 13:50:00,
2013-08-30 07:00:00,58.6,53.8,29.99,NNW,338,0.0,4.0,84,0.00,,,0.00,LWC V2.00 B2112,2013-08-30 14:00:00,
2013-08-30 07:10:00,58.2,53.4,30.00,NNW,338,0.0,1.0,84,0.00,,,0.00,LWC V2.00 B2112,2013-08-30 14:10:00,
2013-08-30 07:20:00,58.2,53.4,30.00,NNW,338,0.0,1.0,84,0.00,,,0.00,LWC V2.00 B2112,2013-08-30 14:20:00,
2013-08-30 07:30:00,58.2,53.4,30.00,NNW,338,0.0,1.0,84,0.00,,,0.00,LWC V2.00 B2112,2013-08-30 14:30:00,
2013-08-30 07:40:00,58.6,53.8,30.00,East,90,0.0,1.0,84,0.00,,,0.00,LWC V2.00 B2112,2013-08-30 14:40:00,
2013-08-30 07:50:00,58.6,53.8,30.00,East,90,0.0,1.0,84,0.00,,,0.00,LWC V2.00 B2112,2013-08-30 14:50:00,
2013-08-30 08:00:00,58.6,53.8,30.00,East,90,0.0,1.0,84,0.00,,,0.00,LWC V2.00 B2112,2013-08-30 15:00:00,
2013-08-30 08:10:00,59.0,54.2,30.00,ENE,68,0.0,3.0,84,0.00,,,0.00,LWC V2.00 B2112,2013-08-30 15:10:00,
2013-08-30 08:20:00,59.0,54.2,30.00,ENE,68,0.0,3.0,84,0.00,,,0.00,LWC V2.00 B2112,2013-08-30 15:20:00,
2013-08-30 08:30:00,59.0,54.2,30.00,ENE,68,0.0,3.0,84,0.00,,,0.00,LWC V2.00 B2112,2013-08-30 15:30:00,
2013-08-30 08:40:00,61.2,56.3,30.00,East,90,0.0,3.0,84,0.00,,,0.00,LWC V2.00 B2112,2013-08-30 15:40:00,
2013-08-30 08:50:00,61.2,56.3,30.00,East,90,0.0,3.0,84,0.00,,,0.00,LWC V2.00 B2112,2013-08-30 15:50:00,
2013-08-30 09:00:00,61.2,56.3,30.00,East,90,0.0,3.0,84,0.00,,,0.00,LWC V2.00 B2112,2013-08-30 16:00:00,
2013-08-30 09:10:00,62.9,58.0,30.00,ENE,68,1.0,5.0,84,0.00,,,0.00,LWC V2.00 B2112,2013-08-30 16:10:00,
2013-08-30 09:27:00,66.4,61.1,30.00,East,100,0.0,0.0,83,0.00,,,0.00,LWC V2.00 B2112,2013-08-30 16:27:00,
2013-08-30 09:32:00,67.5,61.8,30.00,East,98,0.0,0.0,82,0.00,,,0.00,LWC V2.00 B2112,2013-08-30 16:32:00,
2013-08-30 09:37:00,68.5,62.4,30.00,East,99,0.0,0.0,81,0.00,,,0.00,LWC V2.00 B2112,2013-08-30 16:37:00,
2013-08-30 09:41:00,69.4,62.6,30.00,ENE,77,0.0,0.0,79,0.00,,,0.00,LWC V2.00 B2112,2013-08-30 16:41:00,
2013-08-30 09:46:00,70.0,62.8,30.00,East,79,0.0,2.0,78,0.00,,,0.00,LWC V2.00 B2112,2013-08-30 16:46:00,
2013-08-30 09:52:00,70.5,63.3,30.00,East,96,0.0,2.0,78,0.00,,,0.00,LWC V2.00 B2112,2013-08-30 16:52:00,
2013-08-30 09:57:00,71.2,63.6,30.00,East,96,1.0,1.0,77,0.00,,,0.00,LWC V2.00 B2112,2013-08-30 16:57:00,
2013-08-30 10:01:00,71.9,64.3,30.00,East,96,0.0,0.0,77,0.00,,,0.00,LWC V2.00 B2112,2013-08-30 17:01:00,
2013-08-30 10:06:00,72.6,64.6,30.00,East,96,0.0,0.0,76,0.00,,,0.00,LWC V2.00 B2112,2013-08-30 17:06:00,
2013-08-30 10:11:00,73.3,64.9,30.00,ESE,105,0.0,0.0,75,0.00,,,0.00,LWC V2.00 B2112,2013-08-30 17:11:00,
2013-08-30 10:16:00,74.3,65.8,30.00,NE,49,1.0,1.0,75,0.00,,,0.00,LWC V2.00 B2112,2013-08-30 17:16:00,
2013-08-30 10:21:00,75.1,65.8,30.00,NNW,340,0.0,1.0,73,0.00,,,0.00,LWC V2.00 B2112,2013-08-30 17:21:00,
2013-08-30 10:26:00,75.6,65.5,30.00,ESE,114,0.0,1.0,71,0.00,,,0.00,LWC V2.00 B2112,2013-08-30 17:26:00,
2013-08-30 10:31:00,75.1,65.4,29.99,East,92,2.0,2.0,72,0.00,,,0.00,LWC V2.00 B2112,2013-08-30 17:31:00,
2013-08-30 10:37:00,74.7,65.5,29.99,East,97,1.0,2.0,73,0.00,,,0.00,LWC V2.00 B2112,2013-08-30 17:37:00,
2013-08-30 10:42:00,74.6,65.4,29.99,ESE,104,0.0,2.0,73,0.00,,,0.00,LWC V2.00 B2112,2013-08-30 17:42:00,
2013-08-30 10:47:00,75.3,65.6,29.99,East,98,1.0,3.0,72,0.00,,,0.00,LWC V2.00 B2112,2013-08-30 17:47:00,
2013-08-30 10:52:00,76.3,65.4,29.99,SE,132,2.0,3.0,69,0.00,,,0.00,LWC V2.00 B2112,2013-08-30 17:52:00,
2013-08-30 10:57:00,77.0,65.2,29.99,SSW,211,1.0,2.0,67,0.00,,,0.00,LWC V2.00 B2112,2013-08-30 17:57:00,
2013-08-30 11:02:00,77.6,64.9,30.00,ENE,64,6.0,6.0,65,0.00,,,0.00,LWC V2.00 B2112,2013-08-30 18:02:00,
2013-08-30 11:07:00,77.6,64.9,29.99,SE,128,1.0,4.0,65,0.00,,,0.00,LWC V2.00 B2112,2013-08-30 18:07:00,
2013-08-30 11:12:00,77.5,64.3,30.00,SW,228,3.0,6.0,64,0.00,,,0.00,LWC V2.00 B2112,2013-08-30 18:12:00,
2013-08-30 11:17:00,77.2,64.5,29.99,NE,39,1.0,5.0,65,0.00,,,0.00,LWC V2.00 B2112,2013-08-30 18:17:00,
2013-08-30 11:22:00,77.4,64.7,30.00,East,87,0.0,1.0,65,0.00,,,0.00,LWC V2.00 B2112,2013-08-30 18:22:00,
2013-08-30 11:27:00,77.2,64.1,30.00,East,84,1.0,2.0,64,0.00,,,0.00,LWC V2.00 B2112,2013-08-30 18:27:00,
2013-08-30 11:32:00,77.2,64.5,30.00,NNW,345,2.0,4.0,65,0.00,,,0.00,LWC V2.00 B2112,2013-08-30 18:32:00,
2013-08-30 11:37:00,77.1,64.0,30.00,SW,229,0.0,4.0,64,0.00,,,0.00,LWC V2.00 B2112,2013-08-30 18:37:00,
2013-08-30 11:42:00,77.3,64.2,30.00,ENE,75,1.0,3.0,64,0.00,,,0.00,LWC V2.00 B2112,2013-08-30 18:42:00,
2013-08-30 11:47:00,78.0,64.8,30.00,West,274,1.0,4.0,64,0.00,,,0.00,LWC V2.00 B2112,2013-08-30 18:47:00,
2013-08-30 11:52:00,78.2,64.1,30.00,WNW,300,0.0,4.0,62,0.00,,,0.00,LWC V2.00 B2112,2013-08-30 18:52:00,
2013-08-30 11:57:00,78.0,64.4,30.00,NW,312,1.0,2.0,63,0.00,,,0.00,LWC V2.00 B2112,2013-08-30 18:57:00,
2013-08-30 12:02:00,78.7,65.5,29.99,North,353,1.0,2.0,64,0.00,,,0.00,LWC V2.00 B2112,2013-08-30 19:02:00,
2013-08-30 12:07:00,78.6,64.0,29.99,ENE,72,0.0,4.0,61,0.00,,,0.00,LWC V2.00 B2112,2013-08-30 19:07:00,
2013-08-30 12:12:00,78.0,63.9,30.00,ESE,104,0.0,4.0,62,0.00,,,0.00,LWC V2.00 B2112,2013-08-30 19:12:00,
2013-08-30 12:17:00,77.3,63.7,30.00,WNW,294,2.0,4.0,63,0.00,,,0.00,LWC V2.00 B2112,2013-08-30 19:17:00,
2013-08-30 12:22:00,76.6,63.9,30.00,SSE,162,2.0,3.0,65,0.00,,,0.00,LWC V2.00 B2112,2013-08-30 19:22:00,
2013-08-30 12:27:00,76.1,63.5,30.00,East,99,3.0,4.0,65,0.00,,,0.00,LWC V2.00 B2112,2013-08-30 19:27:00,
2013-08-30 12:32:00,75.8,63.6,30.00,ENE,68,1.0,3.0,66,0.00,,,0.00,LWC V2.00 B2112,2013-08-30 19:32:00,
2013-08-30 12:37:00,75.7,63.5,30.00,ESE,119,1.0,3.0,66,0.00,,,0.00,LWC V2.00 B2112,2013-08-30 19:37:00,
2013-08-30 12:42:00,75.3,63.6,30.00,SW,222,1.0,4.0,67,0.00,,,0.00,LWC V2.00 B2112,2013-08-30 19:42:00,
2013-08-30 12:47:00,75.1,63.8,30.00,West,263,1.0,4.0,68,0.00,,,0.00,LWC V2.00 B2112,2013-08-30 19:47:00,
2013-08-30 12:52:00,75.3,64.0,30.00,ENE,67,2.0,3.0,68,0.00,,,0.00,LWC V2.00 B2112,2013-08-30 19:52:00,
2013-08-30 12:57:00,75.4,64.1,29.99,NNE,32,1.0,3.0,68,0.00,,,0.00,LWC V2.00 B2112,2013-08-30 19:57:00,
2013-08-30 13:02:00,75.4,63.7,29.99,NE,39,2.0,4.0,67,0.00,,,0.00,LWC V2.00 B2112,2013-08-30 20:02:00,
2013-08-30 13:07:00,75.2,63.5,29.99,WNW,303,2.0,3.0,67,0.00,,,0.00,LWC V2.00 B2112,2013-08-30 20:07:00,
2013-08-30 13:12:00,74.7,63.4,29.99,SE,126,2.0,3.0,68,0.00,,,0.00,LWC V2.00 B2112,2013-08-30 20:12:00,
2013-08-30 13:17:00,74.5,63.6,29.99,East,84,0.0,3.0,69,0.00,,,0.00,LWC V2.00 B2112,2013-08-30 20:17:00,
2013-08-30 13:22:00,74.2,63.4,29.99,East,96,4.0,4.0,69,0.00,,,0.00,LWC V2.00 B2112,2013-08-30 20:22:00,
2013-08-30 13:27:00,74.0,63.6,29.99,NNE,19,2.0,5.0,70,0.00,,,0.00,LWC V2.00 B2112,2013-08-30 20:27:00,
2013-08-30 13:32:00,74.1,63.3,29.99,NW,312,6.0,6.0,69,0.00,,,0.00,LWC V2.00 B2112,2013-08-30 20:32:00,
2013-08-30 13:37:00,73.7,63.3,29.99,NE,51,1.0,5.0,70,0.00,,,0.00,LWC V2.00 B2112,2013-08-30 20:37:00,
2013-08-30 13:42:00,73.8,63.4,29.99,NW,316,1.0,4.0,70,0.00,,,0.00,LWC V2.00 B2112,2013-08-30 20:42:00,
2013-08-30 13:47:00,73.6,63.6,29.99,SE,134,0.0,4.0,71,0.00,,,0.00,LWC V2.00 B2112,2013-08-30 20:47:00,
2013-08-30 13:52:00,73.7,63.3,29.99,ESE,103,3.0,5.0,70,0.00,,,0.00,LWC V2.00 B2112,2013-08-30 20:52:00,
2013-08-30 13:57:00,73.4,63.0,29.99,WNW,300,1.0,4.0,70,0.00,,,0.00,LWC V2.00 B2112,2013-08-30 20:57:00,
2013-08-30 14:02:00,73.3,62.9,29.99,ESE,123,1.0,5.0,70,0.00,,,0.00,LWC V2.00 B2112,2013-08-30 21:02:00,
2013-08-30 14:07:00,72.9,63.3,29.99,ENE,70,1.0,4.0,72,0.00,,,0.00,LWC V2.00 B2112,2013-08-30 21:07:00,
2013-08-30 14:12:00,72.8,62.8,29.98,South,173,1.0,6.0,71,0.00,,,0.00,LWC V2.00 B2112,2013-08-30 21:12:00,
2013-08-30 14:17:00,72.6,63.0,29.98,WNW,283,1.0,2.0,72,0.00,,,0.00,LWC V2.00 B2112,2013-08-30 21:17:00,
2013-08-30 14:22:00,72.7,63.1,29.98,East,91,5.0,5.0,72,0.00,,,0.00,LWC V2.00 B2112,2013-08-30 21:22:00,
2013-08-30 14:27:00,72.6,62.6,29.98,SSE,166,1.0,6.0,71,0.00,,,0.00,LWC V2.00 B2112,2013-08-30 21:27:00,
2013-08-30 14:32:00,72.1,62.6,29.98,North,350,1.0,4.0,72,0.00,,,0.00,LWC V2.00 B2112,2013-08-30 21:32:00,
2013-08-30 14:37:00,72.0,62.5,29.98,NW,307,1.0,5.0,72,0.00,,,0.00,LWC V2.00 B2112,2013-08-30 21:37:00,
2013-08-30 14:42:00,72.3,62.4,29.98,NW,322,1.0,7.0,71,0.00,,,0.00,LWC V2.00 B2112,2013-08-30 21:42:00,
2013-08-30 14:47:00,72.3,62.8,29.97,SSE,159,2.0,4.0,72,0.00,,,0.00,LWC V2.00 B2112,2013-08-30 21:47:00,
2013-08-30 14:52:00,72.1,62.2,29.97,SE,139,6.0,6.0,71,0.00,,,0.00,LWC V2.00 B2112,2013-08-30 21:52:00,
2013-08-30 14:57:00,71.9,62.4,29.97,NNW,334,3.0,6.0,72,0.00,,,0.00,LWC V2.00 B2112,2013-08-30 21:57:00,
2013-08-30 15:02:00,71.8,62.7,29.97,SE,131,1.0,6.0,73,0.00,,,0.00,LWC V2.00 B2112,2013-08-30 22:02:00,
2013-08-30 15:07:00,71.5,62.0,29.97,NE,46,2.0,4.0,72,0.00,,,0.00,LWC V2.00 B2112,2013-08-30 22:07:00,
2013-08-30 15:12:00,71.8,62.7,29.97,SE,128,0.0,2.0,73,0.00,,,0.00,LWC V2.00 B2112,2013-08-30 22:12:00,
2013-08-30 15:17:00,71.9,62.0,29.97,ESE,110,3.0,5.0,71,0.00,,,0.00,LWC V2.00 B2112,2013-08-30 22:17:00,
2013-08-30 15:22:00,71.6,62.5,29.96,NW,321,2.0,5.0,73,0.00,,,0.00,LWC V2.00 B2112,2013-08-30 22:22:00,
2013-08-30 15:27:00,71.5,62.0,29.96,East,98,4.0,5.0,72,0.00,,,0.00,LWC V2.00 B2112,2013-08-30 22:27:00,
2013-08-30 15:32:00,71.0,61.9,29.96,SE,133,3.0,4.0,73,0.00,,,0.00,LWC V2.00 B2112,2013-08-30 22:32:00,
2013-08-30 15:37:00,70.9,62.2,29.96,ESE,105,1.0,5.0,74,0.00,,,0.00,LWC V2.00 B2112,2013-08-30 22:37:00,
2013-08-30 15:42:00,71.2,62.5,29.96,North,8,2.0,3.0,74,0.00,,,0.00,LWC V2.00 B2112,2013-08-30 22:42:00,
2013-08-30 15:47:00,71.4,62.3,29.95,SSW,197,0.0,5.0,73,0.00,,,0.00,LWC V2.00 B2112,2013-08-30 22:47:00,
2013-08-30 15:52:00,71.1,61.6,29.96,South,176,1.0,5.0,72,0.00,,,0.00,LWC V2.00 B2112,2013-08-30 22:52:00,
2013-08-30 15:57:00,70.5,61.8,29.95,NE,39,2.0,7.0,74,0.00,,,0.00,LWC V2.00 B2112,2013-08-30 22:57:00,
2013-08-30 16:02:00,69.8,61.1,29.95,ESE,103,0.0,3.0,74,0.00,,,0.00,LWC V2.00 B2112,2013-08-30 23:02:00,
2013-08-30 16:07:00,69.5,61.2,29.95,NNW,333,3.0,4.0,75,0.00,,,0.00,LWC V2.00 B2112,2013-08-30 23:07:00,
2013-08-30 16:12:00,69.1,61.2,29.95,NNW,327,1.0,7.0,76,0.00,,,0.00,LWC V2.00 B2112,2013-08-30 23:12:00,
2013-08-30 16:17:00,68.8,60.9,29.95,East,96,1.0,5.0,76,0.00,,,0.00,LWC V2.00 B2112,2013-08-30 23:17:00,
2013-08-30 16:22:00,68.4,60.9,29.94,WSW,249,4.0,4.0,77,0.00,,,0.00,LWC V2.00 B2112,2013-08-30 23:22:00,
2013-08-30 16:27:00,68.0,60.5,29.94,WNW,300,2.0,4.0,77,0.00,,,0.00,LWC V2.00 B2112,2013-08-30 23:27:00,
2013-08-30 16:32:00,67.7,60.6,29.94,East,101,4.0,4.0,78,0.00,,,0.00,LWC V2.00 B2112,2013-08-30 23:32:00,
2013-08-30 16:37:00,67.5,60.4,29.94,NNW,347,2.0,6.0,78,0.00,,,0.00,LWC V2.00 B2112,2013-08-30 23:37:00,
2013-08-30 16:42:00,67.1,60.0,29.94,WSW,238,0.0,3.0,78,0.00,,,0.00,LWC V2.00 B2112,2013-08-30 23:42:00,
2013-08-30 16:47:00,66.9,60.2,29.94,NW,322,1.0,4.0,79,0.00,,,0.00,LWC V2.00 B2112,2013-08-30 23:47:00,
2013-08-30 16:52:00,66.7,60.0,29.94,ESE,114,1.0,2.0,79,0.00,,,0.00,LWC V2.00 B2112,2013-08-30 23:52:00,
2013-08-30 16:57:00,66.7,60.3,29.93,SE,127,2.0,3.0,80,0.00,,,0.00,LWC V2.00 B2112,2013-08-30 23:57:00,
2013-08-30 17:02:00,66.7,60.3,29.93,South,174,0.0,1.0,80,0.00,,,0.00,LWC V2.00 B2112,2013-08-31 00:02:00,
2013-08-30 17:07:00,66.5,59.8,29.93,SE,139,1.0,1.0,79,0.00,,,0.00,LWC V2.00 B2112,2013-08-31 00:07:00,
2013-08-30 17:12:00,66.3,59.9,29.93,ENE,78,3.0,3.0,80,0.00,,,0.00,LWC V2.00 B2112,2013-08-31 00:12:00,
2013-08-30 17:17:00,66.1,59.7,29.93,WSW,240,1.0,4.0,80,0.00,,,0.00,LWC V2.00 B2112,2013-08-31 00:17:00,
2013-08-30 17:22:00,65.9,59.5,29.92,East,89,2.0,2.0,80,0.00,,,0.00,LWC V2.00 B2112,2013-08-31 00:22:00,
2013-08-30 17:27:00,65.8,59.5,29.93,SSE,164,0.0,4.0,80,0.00,,,0.00,LWC V2.00 B2112,2013-08-31 00:27:00,
2013-08-30 17:32:00,65.6,59.3,29.92,East,84,1.0,3.0,80,0.00,,,0.00,LWC V2.00 B2112,2013-08-31 00:32:00,
2013-08-30 17:37:00,65.5,59.5,29.92,North,349,3.0,3.0,81,0.00,,,0.00,LWC V2.00 B2112,2013-08-31 00:37:00,
2013-08-30 17:42:00,65.2,59.2,29.92,NW,318,2.0,2.0,81,0.00,,,0.00,LWC V2.00 B2112,2013-08-31 00:42:00,
2013-08-30 17:47:00,64.9,58.9,29.92,ENE,68,2.0,4.0,81,0.00,,,0.00,LWC V2.00 B2112,2013-08-31 00:47:00,
2013-08-30 17:52:00,64.8,58.8,29.92,ENE,78,2.0,3.0,81,0.00,,,0.00,LWC V2.00 B2112,2013-08-31 00:52:00,
2013-08-30 17:57:00,64.6,59.0,29.92,West,278,0.0,1.0,82,0.00,,,0.00,LWC V2.00 B2112,2013-08-31 00:57:00,
2013-08-30 18:02:00,64.4,58.8,29.92,SSE,149,0.0,2.0,82,0.00,,,0.00,LWC V2.00 B2112,2013-08-31 01:02:00,
2013-08-30 18:07:00,64.2,58.6,29.92,NNW,347,0.0,2.0,82,0.00,,,0.00,LWC V2.00 B2112,2013-08-31 01:07:00,
2013-08-30 18:12:00,64.0,58.4,29.92,SW,231,0.0,2.0,82,0.00,,,0.00,LWC V2.00 B2112,2013-08-31 01:12:00,
2013-08-30 18:17:00,63.9,58.3,29.92,ENE,65,0.0,3.0,82,0.00,,,0.00,LWC V2.00 B2112,2013-08-31 01:17:00,
2013-08-30 18:22:00,63.7,58.1,29.92,East,92,2.0,2.0,82,0.00,,,0.00,LWC V2.00 B2112,2013-08-31 01:22:00,
2013-08-30 18:27:00,63.5,57.9,29.92,NE,39,0.0,2.0,82,0.00,,,0.00,LWC V2.00 B2112,2013-08-31 01:27:00,
2013-08-30 18:32:00,63.3,58.0,29.92,NNW,340,1.0,5.0,83,0.00,,,0.00,LWC V2.00 B2112,2013-08-31 01:32:00,
2013-08-30 18:37:00,63.2,57.9,29.92,ESE,113,2.0,3.0,83,0.00,,,0.00,LWC V2.00 B2112,2013-08-31 01:37:00,
2013-08-30 18:42:00,63.0,57.8,29.92,ESE,117,0.0,3.0,83,0.00,,,0.00,LWC V2.00 B2112,2013-08-31 01:42:00,
2013-08-30 18:47:00,62.9,57.7,29.92,ESE,120,1.0,2.0,83,0.00,,,0.00,LWC V2.00 B2112,2013-08-31 01:47:00,
2013-08-30 18:52:00,62.7,57.5,29.91,ESE,109,0.0,2.0,83,0.00,,,0.00,LWC V2.00 B2112,2013-08-31 01:52:00,
2013-08-30 18:57:00,62.6,57.4,29.91,SE,143,1.0,6.0,83,0.00,,,0.00,LWC V2.00 B2112,2013-08-31 01:57:00,
2013-08-30 19:02:00,62.5,57.3,29.91,East,99,0.0,2.0,83,0.00,,,0.00,LWC V2.00 B2112,2013-08-31 02:02:00,
2013-08-30 19:07:00,62.4,57.2,29.91,East,96,0.0,2.0,83,0.00,,,0.00,LWC V2.00 B2112,2013-08-31 02:07:00,
2013-08-30 19:12:00,62.3,57.1,29.91,East,92,1.0,3.0,83,0.00,,,0.00,LWC V2.00 B2112,2013-08-31 02:12:00,
2013-08-30 19:17:00,62.2,57.0,29.91,NW,323,2.0,2.0,83,0.00,,,0.00,LWC V2.00 B2112,2013-08-31 02:17:00,
2013-08-30 19:22:00,62.1,56.9,29.91,West,269,0.0,1.0,83,0.00,,,0.00,LWC V2.00 B2112,2013-08-31 02:22:00,
2013-08-30 19:27:00,62.0,56.8,29.91,NNW,343,0.0,4.0,83,0.00,,,0.00,LWC V2.00 B2112,2013-08-31 02:27:00,
2013-08-30 19:32:00,61.9,56.7,29.91,SSE,157,0.0,3.0,83,0.00,,,0.00,LWC V2.00 B2112,2013-08-31 02:32:00,
2013-08-30 19:37:00,61.8,56.6,29.91,NW,304,1.0,2.0,83,0.00,,,0.00,LWC V2.00 B2112,2013-08-31 02:37:00,
2013-08-30 19:42:00,61.7,56.5,29.91,SE,142,1.0,2.0,83,0.00,,,0.00,LWC V2.00 B2112,2013-08-31 02:42:00,
2013-08-30 19:47:00,61.6,56.4,29.91,SSE,149,1.0,2.0,83,0.00,,,0.00,LWC V2.00 B2112,2013-08-31 02:47:00,
2013-08-30 19:52:00,61.5,56.3,29.91,East,96,0.0,1.0,83,0.00,,,0.00,LWC V2.00 B2112,2013-08-31 02:52:00,
2013-08-30 19:57:00,61.4,56.5,29.91,NW,308,0.0,2.0,84,0.00,,,0.00,LWC V2.00 B2112,2013-08-31 02:57:00,
2013-08-30 20:02:00,61.4,56.5,29.91,SSW,200,0.0,0.0,84,0.00,,,0.00,LWC V2.00 B2112,2013-08-31 03:02:00,
2013-08-30 20:07:00,61.3,56.4,29.91,NE,53,0.0,0.0,84,0.00,,,0.00,LWC V2.00 B2112,2013-08-31 03:07:00,
2013-08-30 20:12:00,61.3,56.4,29.91,SSE,148,0.0,1.0,84,0.00,,,0.00,LWC V2.00 B2112,2013-08-31 03:12:00,
2013-08-30 20:17:00,61.3,56.4,29.91,SSE,152,0.0,6.0,84,0.00,,,0.00,LWC V2.00 B2112,2013-08-31 03:17:00,
2013-08-30 20:22:00,61.3,56.4,29.91,South,191,1.0,2.0,84,0.00,,,0.00,LWC V2.00 B2112,2013-08-31 03:22:00,
2013-08-30 20:27:00,61.2,56.3,29.91,South,170,0.0,3.0,84,0.00,,,0.00,LWC V2.00 B2112,2013-08-31 03:27:00,
2013-08-30 20:32:00,61.1,56.2,29.91,ENE,60,0.0,0.0,84,0.00,,,0.00,LWC V2.00 B2112,2013-08-31 03:32:00,
2013-08-30 20:37:00,61.1,56.2,29.91,ESE,110,0.0,0.0,84,0.00,,,0.00,LWC V2.00 B2112,2013-08-31 03:37:00,
2013-08-30 20:42:00,61.0,56.1,29.92,SSE,150,0.0,1.0,84,0.00,,,0.00,LWC V2.00 B2112,2013-08-31 03:42:00,
2013-08-30 20:47:00,61.0,56.1,29.91,SSE,156,0.0,0.0,84,0.00,,,0.00,LWC V2.00 B2112,2013-08-31 03:47:00,
2013-08-30 20:52:00,60.9,56.0,29.92,WNW,299,0.0,3.0,84,0.00,,,0.00,LWC V2.00 B2112,2013-08-31 03:52:00,
2013-08-30 20:57:00,60.8,55.9,29.92,NNE,27,1.0,2.0,84,0.00,,,0.00,LWC V2.00 B2112,2013-08-31 03:57:00,
2013-08-30 21:01:00,60.8,55.9,29.92,ENE,72,1.0,1.0,84,0.00,,,0.00,LWC V2.00 B2112,2013-08-31 04:01:00,
2013-08-30 21:02:00,60.8,55.9,29.92,East,85,1.0,2.0,84,0.00,,,0.00,LWC V2.00 B2112,2013-08-31 04:02:00,
2013-08-30 21:07:00,60.8,55.9,29.92,East,100,0.0,1.0,84,0.00,,,0.00,LWC V2.00 B2112,2013-08-31 04:07:00,
2013-08-30 21:12:00,60.7,55.8,29.92,ESE,109,1.0,2.0,84,0.00,,,0.00,LWC V2.00 B2112,2013-08-31 04:12:00,
2013-08-30 21:17:00,60.6,55.7,29.92,SE,130,0.0,1.0,84,0.00,,,0.00,LWC V2.00 B2112,2013-08-31 04:17:00,
2013-08-30 21:22:00,60.5,55.6,29.92,East,98,0.0,2.0,84,0.00,,,0.00,LWC V2.00 B2112,2013-08-31 04:22:00,
2013-08-30 21:27:00,60.5,55.6,29.93,ESE,107,1.0,2.0,84,0.00,,,0.00,LWC V2.00 B2112,2013-08-31 04:27:00,
2013-08-30 21:32:00,60.5,55.6,29.92,East,99,0.0,2.0,84,0.00,,,0.00,LWC V2.00 B2112,2013-08-31 04:32:00,
2013-08-30 21:37:00,60.6,55.7,29.92,ESE,113,5.0,5.0,84,0.00,,,0.00,LWC V2.00 B2112,2013-08-31 04:37:00,
2013-08-30 21:42:00,60.6,55.7,29.92,ESE,113,0.0,2.0,84,0.00,,,0.00,LWC V2.00 B2112,2013-08-31 04:42:00,
2013-08-30 21:47:00,60.5,55.6,29.92,East,89,2.0,2.0,84,0.00,,,0.00,LWC V2.00 B2112,2013-08-31 04:47:00,
2013-08-30 21:52:00,60.4,55.5,29.92,East,92,1.0,1.0,84,0.00,,,0.00,LWC V2.00 B2112,2013-08-31 04:52:00,
2013-08-30 21:57:00,60.3,55.4,29.92,SSW,194,0.0,2.0,84,0.00,,,0.00,LWC V2.00 B2112,2013-08-31 04:57:00,
2013-08-30 22:02:00,60.1,55.2,29.92,ESE,105,0.0,0.0,84,0.00,,,0.00,LWC V2.00 B2112,2013-08-31 05:02:00,
2013-08-30 22:07:00,59.9,55.0,29.93,WSW,249,1.0,2.0,84,0.00,,,0.00,LWC V2.00 B2112,2013-08-31 05:07:00,
2013-08-30 22:12:00,59.8,55.0,29.93,SSW,193,0.0,0.0,84,0.00,,,0.00,LWC V2.00 B2112,2013-08-31 05:12:00,
2013-08-30 22:17:00,59.7,54.9,29.93,East,82,0.0,0.0,84,0.00,,,0.00,LWC V2.00 B2112,2013-08-31 05:17:00,
2013-08-30 22:22:00,59.6,54.8,29.93,SSW,194,0.0,0.0,84,0.00,,,0.00,LWC V2.00 B2112,2013-08-31 05:22:00,
2013-08-30 22:27:00,59.3,54.5,29.93,SSW,194,0.0,0.0,84,0.00,,,0.00,LWC V2.00 B2112,2013-08-31 05:27:00,
2013-08-30 22:32:00,59.1,54.3,29.93,South,183,0.0,0.0,84,0.00,,,0.00,LWC V2.00 B2112,2013-08-31 05:32:00,
2013-08-30 22:37:00,59.0,54.2,29.93,East,85,0.0,0.0,84,0.00,,,0.00,LWC V2.00 B2112,2013-08-31 05:37:00,
2013-08-30 22:42:00,58.8,54.0,29.93,East,81,0.0,0.0,84,0.00,,,0.00,LWC V2.00 B2112,2013-08-31 05:42:00,
2013-08-30 22:47:00,58.7,53.9,29.93,East,81,0.0,0.0,84,0.00,,,0.00,LWC V2.00 B2112,2013-08-31 05:47:00,
2013-08-30 22:52:00,58.5,53.7,29.93,East,81,0.0,0.0,84,0.00,,,0.00,LWC V2.00 B2112,2013-08-31 05:52:00,
2013-08-30 22:57:00,58.3,53.5,29.93,East,81,0.0,0.0,84,0.00,,,0.00,LWC V2.00 B2112,2013-08-31 05:57:00,
2013-08-30 23:02:00,58.2,53.4,29.93,SSE,157,0.0,0.0,84,0.00,,,0.00,LWC V2.00 B2112,2013-08-31 06:02:00,
2013-08-30 23:07:00,58.1,53.3,29.93,SSE,157,0.0,0.0,84,0.00,,,0.00,LWC V2.00 B2112,2013-08-31 06:07:00,
2013-08-30 23:12:00,58.0,53.2,29.93,SSE,156,0.0,0.0,84,0.00,,,0.00,LWC V2.00 B2112,2013-08-31 06:12:00,
2013-08-30 23:17:00,57.9,53.1,29.93,SSE,156,0.0,0.0,84,0.00,,,0.00,LWC V2.00 B2112,2013-08-31 06:17:00,
2013-08-30 23:22:00,57.7,52.9,29.93,SSE,156,0.0,0.0,84,0.00,,,0.00,LWC V2.00 B2112,2013-08-31 06:22:00,
2013-08-30 23:27:00,57.4,52.6,29.92,SSE,156,0.0,0.0,84,0.00,,,0.00,LWC V2.00 B2112,2013-08-31 06:27:00,
2013-08-30 23:32:00,57.3,52.5,29.92,SSE,157,0.0,0.0,84,0.00,,,0.00,LWC V2.00 B2112,2013-08-31 06:32:00,
2013-08-30 23:37:00,57.1,52.3,29.93,SSE,156,0.0,0.0,84,0.00,,,0.00,LWC V2.00 B2112,2013-08-31 06:37:00,
2013-08-30 23:42:00,56.8,52.3,29.92,SSE,156,0.0,0.0,85,0.00,,,0.00,LWC V2.00 B2112,2013-08-31 06:42:00,
2013-08-30 23:47:00,56.8,52.3,29.92,SSE,155,0.0,0.0,85,0.00,,,0.00,LWC V2.00 B2112,2013-08-31 06:47:00,
2013-08-30 23:52:00,56.7,52.2,29.92,SSE,156,0.0,0.0,85,0.00,,,0.00,LWC V2.00 B2112,2013-08-31 06:52:00,
2013-08-30 23:57:00,56.5,52.0,29.92,SSE,156,0.0,0.0,85,0.00,,,0.00,LWC V2.00 B2112,2013-08-31 06:57:00,